• Em Portugal
  • Lista de países
  • Para 7 dias
  • Temperatura da água
  • Mapas de satélite
  • Mapa do tempo
  • Widgets de tempo
  • user-avatar
    Iniciar Sessão

    Previsão horária em Lozenec

    Hoje, 22 Outubro, Segunda-feira

    Tempo Temperatura Precipitação Vento Pressão Humidade
    00:00 +14°C° 0.1 mm 5 m/s 762 mmHg 92%
    01:00 +13°C° 0.1 mm 5 m/s 762 mmHg 92%
    02:00 +13°C° 0 mm 5 m/s 762 mmHg 91%
    03:00 +13°C° 0.1 mm 5 m/s 762 mmHg 91%
    04:00 +13°C° 0.1 mm 5 m/s 762 mmHg 90%
    05:00 +11°C° 0.1 mm 6 m/s 762 mmHg 89%
    06:00 +13°C° 0.1 mm 6 m/s 762 mmHg 86%
    07:00 +13°C° 0.1 mm 6 m/s 763 mmHg 83%
    08:00 +13°C° 0.1 mm 6 m/s 763 mmHg 79%
    09:00 +15°C° 0.1 mm 6 m/s 763 mmHg 75%
    10:00 +16°C° 0.1 mm 6 m/s 763 mmHg 70%
    11:00 +17°C° 0.1 mm 6 m/s 763 mmHg 65%
    12:00 +17°C° 0.1 mm 6 m/s 762 mmHg 64%
    13:00 +17°C° 0.1 mm 6 m/s 762 mmHg 63%
    14:00 +19°C° 0.1 mm 6 m/s 762 mmHg 62%
    15:00 +17°C° 0 mm 5 m/s 762 mmHg 66%
    16:00 +16°C° 0 mm 5 m/s 762 mmHg 70%
    17:00 +15°C° 0 mm 5 m/s 762 mmHg 74%
    18:00 +14°C° 0 mm 5 m/s 762 mmHg 78%
    19:00 +14°C° 0 mm 4 m/s 762 mmHg 83%
    20:00 +13°C° 0 mm 4 m/s 762 mmHg 87%
    21:00 +13°C° 0 mm 4 m/s 762 mmHg 88%
    22:00 +13°C° 0 mm 4 m/s 762 mmHg 89%
    23:00 +13°C° 0 mm 4 m/s 762 mmHg 90%

    Amanhã, 23 Outubro, Terça-feira

    Tempo Temperatura Precipitação Vento Pressão Humidade
    00:00 +12°C° 0 mm 4 m/s 762 mmHg 90%
    01:00 +12°C° 0 mm 4 m/s 762 mmHg 90%
    02:00 +12°C° 0 mm 4 m/s 762 mmHg 90%
    03:00 +12°C° 0.1 mm 4 m/s 762 mmHg 89%
    04:00 +12°C° 0.1 mm 4 m/s 762 mmHg 88%
    05:00 +12°C° 0.1 mm 4 m/s 761 mmHg 88%
    06:00 +12°C° 0.1 mm 4 m/s 761 mmHg 85%
    07:00 +13°C° 0.1 mm 4 m/s 762 mmHg 83%
    08:00 +13°C° 0.1 mm 4 m/s 762 mmHg 80%
    09:00 +14°C° 0 mm 4 m/s 762 mmHg 76%
    10:00 +17°C° 0 mm 4 m/s 762 mmHg 71%
    11:00 +18°C° 0 mm 4 m/s 762 mmHg 66%
    12:00 +18°C° 0 mm 4 m/s 761 mmHg 64%
    13:00 +19°C° 0 mm 3 m/s 761 mmHg 61%
    14:00 +19°C° 0 mm 3 m/s 760 mmHg 59%
    15:00 +18°C° 0 mm 3 m/s 760 mmHg 63%
    16:00 +17°C° 0 mm 3 m/s 759 mmHg 67%
    17:00 +16°C° 0 mm 2 m/s 759 mmHg 71%
    18:00 +15°C° 0 mm 2 m/s 759 mmHg 75%
    19:00 +14°C° 0 mm 1 m/s 759 mmHg 80%
    20:00 +14°C° 0 mm 1 m/s 759 mmHg 85%
    21:00 +13°C° 0 mm 1 m/s 759 mmHg 84%
    22:00 +13°C° 0 mm 1 m/s 759 mmHg 84%
    23:00 +13°C° 0 mm 2 m/s 758 mmHg 83%

    Depois de amanhã, 24 Outubro, Quarta-feira

    Tempo Temperatura Precipitação Vento Pressão Humidade
    00:00 +13°C° 0 mm 2 m/s 758 mmHg 82%
    01:00 +12°C° 0 mm 2 m/s 757 mmHg 81%
    02:00 +12°C° 0 mm 2 m/s 757 mmHg 81%
    03:00 +11°C° 0 mm 3 m/s 756 mmHg 81%
    04:00 +11°C° 0 mm 3 m/s 755 mmHg 82%
    05:00 +11°C° 0 mm 3 m/s 755 mmHg 82%
    06:00 +11°C° 0 mm 3 m/s 755 mmHg 77%
    07:00 +12°C° 0 mm 4 m/s 754 mmHg 73%
    08:00 +13°C° 0 mm 4 m/s 754 mmHg 69%
    09:00 +15°C° 0 mm 5 m/s 754 mmHg 60%
    10:00 +16°C° 0 mm 5 m/s 753 mmHg 51%
    11:00 +19°C° 0 mm 6 m/s 752 mmHg 43%
    12:00 +20°C° 0 mm 6 m/s 751 mmHg 40%
    13:00 +21°C° 0 mm 7 m/s 750 mmHg 37%
    14:00 +21°C° 0 mm 7 m/s 750 mmHg 34%
    15:00 +21°C° 0 mm 7 m/s 749 mmHg 37%
    16:00 +20°C° 0 mm 6 m/s 749 mmHg 40%
    17:00 +19°C° 0 mm 6 m/s 748 mmHg 42%
    18:00 +17°C° 0 mm 6 m/s 749 mmHg 47%
    19:00 +16°C° 0 mm 6 m/s 749 mmHg 51%
    20:00 +15°C° 0 mm 6 m/s 749 mmHg 56%
    21:00 +14°C° 0.3 mm 7 m/s 750 mmHg 55%
    22:00 +13°C° 0.3 mm 9 m/s 751 mmHg 54%
    23:00 +12°C° 0.3 mm 10 m/s 751 mmHg 53%

    25 Outubro, Quinta-feira

    Tempo Temperatura Precipitação Vento Pressão Humidade
    00:00 +11°C° 0 mm 9 m/s 752 mmHg 52%
    01:00 +8°C° 0 mm 9 m/s 752 mmHg 50%
    02:00 +7°C° 0 mm 8 m/s 753 mmHg 48%
    03:00 +6°C° 0 mm 8 m/s 753 mmHg 48%
    04:00 +6°C° 0 mm 7 m/s 754 mmHg 48%
    05:00 +5°C° 0 mm 7 m/s 754 mmHg 48%
    06:00 +6°C° 0 mm 7 m/s 754 mmHg 47%
    07:00 +6°C° 0 mm 7 m/s 755 mmHg 45%
    08:00 +6°C° 0 mm 8 m/s 755 mmHg 44%
    09:00 +8°C° 0 mm 7 m/s 756 mmHg 40%
    10:00 +10°C° 0 mm 7 m/s 756 mmHg 37%
    11:00 +11°C° 0 mm 6 m/s 756 mmHg 33%
    12:00 +13°C° 0 mm 6 m/s 756 mmHg 31%
    13:00 +13°C° 0 mm 6 m/s 756 mmHg 30%
    14:00 +14°C° 0 mm 6 m/s 756 mmHg 28%
    15:00 +13°C° 0 mm 6 m/s 757 mmHg 30%
    16:00 +12°C° 0 mm 5 m/s 757 mmHg 32%
    17:00 +10°C° 0 mm 5 m/s 757 mmHg 34%
    18:00 +10°C° 0 mm 5 m/s 757 mmHg 34%
    19:00 +9°C° 0 mm 5 m/s 757 mmHg 34%
    20:00 +8°C° 0 mm 4 m/s 757 mmHg 35%
    21:00 +8°C° 0 mm 5 m/s 757 mmHg 35%
    22:00 +8°C° 0 mm 6 m/s 757 mmHg 35%
    23:00 +8°C° 0 mm 6 m/s 757 mmHg 36%

    26 Outubro, Sexta-feira

    Tempo Temperatura Precipitação Vento Pressão Humidade
    00:00 +8°C° 0 mm 6 m/s 757 mmHg 39%
    01:00 +8°C° 0 mm 6 m/s 757 mmHg 42%
    02:00 +8°C° 0 mm 6 m/s 757 mmHg 45%
    03:00 +8°C° 0 mm 6 m/s 757 mmHg 51%
    04:00 +8°C° 0 mm 6 m/s 757 mmHg 57%
    05:00 +8°C° 0 mm 5 m/s 757 mmHg 63%
    06:00 +9°C° 0 mm 5 m/s 758 mmHg 63%
    07:00 +10°C° 0 mm 4 m/s 758 mmHg 64%
    08:00 +11°C° 0 mm 4 m/s 759 mmHg 64%
    09:00 +13°C° 0 mm 4 m/s 759 mmHg 59%
    10:00 +15°C° 0 mm 4 m/s 759 mmHg 53%
    11:00 +18°C° 0 mm 4 m/s 760 mmHg 48%
    12:00 +19°C° 0 mm 3 m/s 760 mmHg 45%
    13:00 +20°C° 0 mm 2 m/s 760 mmHg 43%
    14:00 +21°C° 0 mm 1 m/s 760 mmHg 41%
    15:00 +19°C° 0 mm 2 m/s 760 mmHg 44%
    16:00 +18°C° 0 mm 3 m/s 760 mmHg 47%
    17:00 +17°C° 0 mm 4 m/s 760 mmHg 50%
    18:00 +17°C° 0 mm 4 m/s 760 mmHg 55%
    19:00 +15°C° 0 mm 4 m/s 761 mmHg 60%
    20:00 +14°C° 0 mm 5 m/s 761 mmHg 65%
    21:00 +14°C° 0 mm 5 m/s 761 mmHg 68%
    22:00 +14°C° 0 mm 5 m/s 761 mmHg 72%
    23:00 +13°C° 0 mm 5 m/s 761 mmHg 76%

    27 Outubro, Sábado

    Tempo Temperatura Precipitação Vento Pressão Humidade
    00:00 +13°C° 0 mm 5 m/s 761 mmHg 77%
    01:00 +13°C° 0 mm 5 m/s 761 mmHg 78%
    02:00 +13°C° 0 mm 5 m/s 761 mmHg 79%
    03:00 +13°C° 0 mm 5 m/s 761 mmHg 78%
    04:00 +13°C° 0 mm 5 m/s 761 mmHg 78%
    05:00 +13°C° 0 mm 5 m/s 761 mmHg 77%
    06:00 +13°C° 0 mm 5 m/s 761 mmHg 73%
    07:00 +14°C° 0 mm 4 m/s 761 mmHg 70%
    08:00 +14°C° 0 mm 4 m/s 761 mmHg 66%
    09:00 +16°C° 0 mm 5 m/s 761 mmHg 57%
    10:00 +19°C° 0 mm 5 m/s 761 mmHg 49%
    11:00 +21°C° 0 mm 6 m/s 761 mmHg 41%
    12:00 +22°C° 0 mm 6 m/s 760 mmHg 40%
    13:00 +23°C° 0 mm 6 m/s 760 mmHg 38%
    14:00 +23°C° 0 mm 6 m/s 759 mmHg 37%
    15:00 +22°C° 0 mm 6 m/s 759 mmHg 41%
    16:00 +21°C° 0 mm 6 m/s 759 mmHg 45%
    17:00 +20°C° 0 mm 6 m/s 759 mmHg 49%
    18:00 +20°C° 0 mm 6 m/s 759 mmHg 52%
    19:00 +19°C° 0 mm 6 m/s 759 mmHg 55%
    20:00 +17°C° 0 mm 6 m/s 759 mmHg 58%
    21:00 +17°C° 0 mm 6 m/s 759 mmHg 62%
    22:00 +17°C° 0 mm 6 m/s 759 mmHg 66%
    23:00 +16°C° 0 mm 6 m/s 759 mmHg 71%

    28 Outubro, Domingo

    Tempo Temperatura Precipitação Vento Pressão Humidade
    00:00 +16°C° 0 mm 6 m/s 759 mmHg 72%
    01:00 +16°C° 0 mm 6 m/s 759 mmHg 74%
    02:00 +16°C° 0 mm 7 m/s 759 mmHg 75%
    03:00 +16°C° 0 mm 7 m/s 759 mmHg 76%
    04:00 +16°C° 0 mm 7 m/s 759 mmHg 77%
    05:00 +16°C° 0 mm 7 m/s 759 mmHg 78%
    06:00 +16°C° 0 mm 7 m/s 760 mmHg 77%
    07:00 +16°C° 0 mm 7 m/s 760 mmHg 76%
    08:00 +17°C° 0 mm 7 m/s 760 mmHg 75%
    09:00 +18°C° 0 mm 7 m/s 760 mmHg 70%
    10:00 +21°C° 0 mm 7 m/s 760 mmHg 64%
    11:00 +22°C° 0 mm 7 m/s 761 mmHg 59%
    12:00 +23°C° 0 mm 7 m/s 760 mmHg 55%
    13:00 +24°C° 0 mm 7 m/s 760 mmHg 52%
    14:00 +24°C° 0 mm 7 m/s 759 mmHg 48%
    15:00 +23°C° 0 mm 7 m/s 759 mmHg 51%
    16:00 +22°C° 0 mm 7 m/s 759 mmHg 54%
    17:00 +21°C° 0 mm 6 m/s 759 mmHg 57%
    18:00 +20°C° 0 mm 6 m/s 760 mmHg 61%
    19:00 +20°C° 0 mm 6 m/s 760 mmHg 65%
    20:00 +19°C° 0 mm 6 m/s 760 mmHg 69%
    21:00 +19°C° 0 mm 6 m/s 760 mmHg 71%
    22:00 +17°C° 0 mm 6 m/s 760 mmHg 73%
    23:00 +17°C° 0 mm 5 m/s 760 mmHg 76%
    Mostrar mais